Theta_e
307 307 307 307 307 307 307 307 307 307 307 307 307 308 308 308 308 308 308 308 309 309 309 309 309 309 308 306 304 303 302 302 304 308 312 314 304 306 310 314 316 314 311 310 312 312 313 314 314 316 317 319 319 319 318 317 316 315 317 317 315 315 314 317 317 315 315 317 318 318 318 317 318 315 323 341 348 348 351 352 351 349 348 348 347 345 344 343
307 307 307 307 307 307 307 307 307 307 307 307 307 307 307 308 308 308 308 308 308 308 309 309 309 309 307 305 303 302 302 303 308 312 314 306 305 307 309 313 315 316 314 312 313 312 314 316 315 316 317 320 319 317 317 317 317 316 318 317 315 316 315 316 315 316 315 316 318 317 317 316 318 316 317 341 350 352 356 354 352 352 348 345 344 344 344 343
306 306 306 307 306 306 307 307 307 307 307 307 307 307 307 307 308 308 308 308 308 308 308 308 309 309 307 304 302 301 303 308 315 317 310 305 307 305 308 314 316 317 316 314 312 311 314 314 314 316 318 320 319 316 316 317 317 316 317 316 315 316 315 316 315 316 316 317 318 317 317 315 318 317 318 340 350 353 359 357 356 355 352 347 344 343 343 343
306 306 306 306 306 306 306 307 307 307 307 307 307 307 307 307 308 308 308 308 308 308 308 308 309 308 306 302 301 301 306 314 319 314 311 314 312 306 307 314 317 317 317 316 311 310 313 313 313 316 317 319 319 315 314 315 316 316 316 316 316 316 315 316 315 316 317 317 318 317 317 316 317 317 318 332 343 348 353 354 356 354 351 347 344 343 343 343
306 306 306 306 306 306 306 306 307 307 307 307 307 307 307 307 307 308 308 308 308 308 308 308 308 307 303 300 300 303 309 315 315 316 317 318 316 310 307 313 318 318 317 315 311 310 312 313 314 315 317 319 318 314 314 314 314 315 315 316 316 315 315 316 315 316 317 318 318 317 316 315 317 318 318 320 326 338 346 348 351 350 348 346 344 344 344 343
305 305 305 306 306 306 306 306 306 307 306 306 306 307 307 307 307 307 307 307 307 307 308 308 307 306 302 299 302 306 310 309 312 318 316 315 315 310 307 312 318 317 315 312 310 311 312 314 315 317 317 318 317 315 315 313 312 315 314 315 315 315 315 315 315 316 318 317 317 316 315 316 317 318 318 315 315 328 341 346 349 349 347 346 346 346 346 345
305 305 305 305 306 306 306 306 306 306 306 306 306 306 307 307 307 307 307 307 307 307 307 307 306 305 301 301 307 312 314 312 309 313 312 312 313 310 308 313 316 314 312 310 310 311 313 315 316 318 317 318 318 315 315 314 313 313 313 315 314 314 314 314 315 317 319 317 317 316 315 316 316 317 316 320 329 337 344 347 349 349 348 348 348 348 348 347
304 305 305 305 305 305 306 306 306 306 306 306 306 306 306 306 307 307 307 306 307 307 307 307 306 304 300 303 312 316 317 316 308 308 309 311 313 313 313 315 314 311 311 310 309 310 313 316 317 318 318 318 318 316 315 314 314 313 313 314 314 314 314 315 315 317 319 318 317 316 315 317 316 317 313 324 341 344 344 348 348 349 350 350 350 350 350 347
304 304 304 304 305 305 305 305 306 306 306 306 306 306 306 306 306 306 306 306 306 307 306 307 307 304 301 307 314 313 313 311 306 312 313 313 314 313 314 313 310 310 311 310 309 310 314 319 319 318 318 318 317 316 315 314 316 315 313 313 313 314 314 315 315 315 318 317 317 315 315 317 316 316 312 326 343 344 345 349 349 350 351 351 352 351 349 346
304 304 304 304 305 304 305 305 305 305 306 306 306 306 306 306 306 306 306 306 306 307 306 307 307 304 302 309 315 310 310 311 311 316 316 315 313 311 311 309 309 311 312 311 310 311 314 318 320 318 317 317 317 316 316 314 316 314 313 313 313 314 314 315 314 316 317 316 317 316 316 317 316 315 312 328 344 345 347 350 350 351 352 352 352 352 349 346
304 304 304 304 304 304 305 305 305 305 306 306 305 305 306 305 306 306 305 305 306 306 306 306 307 305 304 311 317 311 308 316 318 317 317 315 312 311 310 309 311 312 311 312 311 311 314 316 318 319 318 316 315 315 316 314 314 313 313 313 314 314 314 315 315 317 316 315 318 316 317 316 315 315 313 330 345 345 347 350 350 352 352 352 351 352 350 346
303 304 304 304 304 304 304 305 305 305 305 305 305 305 305 305 305 305 305 304 304 305 306 307 308 307 308 312 315 311 305 316 319 316 317 316 312 312 310 310 312 311 310 311 311 312 315 317 318 319 317 314 313 314 314 312 312 312 313 312 315 316 314 316 316 317 316 315 318 316 315 315 315 314 315 334 347 346 347 350 349 351 350 350 350 351 350 345
303 303 304 304 304 304 304 304 304 305 305 305 305 305 305 305 305 304 303 302 302 305 306 308 308 307 310 313 312 306 304 311 312 311 312 315 316 314 312 312 313 311 309 310 311 313 315 318 319 317 315 313 312 312 312 312 312 313 314 312 314 315 314 316 315 316 316 316 318 315 314 315 317 315 314 333 347 345 347 348 347 349 348 348 349 351 351 346
303 303 304 303 304 304 304 304 304 305 304 304 304 304 305 304 304 302 301 301 303 306 307 309 309 308 313 315 306 302 304 305 306 307 308 314 319 315 312 314 315 312 309 309 313 315 317 318 316 314 313 313 313 313 312 312 313 313 314 315 315 312 313 315 315 316 315 316 318 314 313 314 317 316 313 330 344 342 343 345 344 347 347 347 349 351 353 348
303 303 303 303 303 304 304 304 304 304 304 304 304 304 304 303 301 300 301 302 304 306 307 308 308 310 314 313 305 304 308 310 311 309 308 315 319 315 313 316 315 312 308 309 313 315 316 315 313 313 313 314 312 313 313 312 315 314 313 318 317 310 311 314 314 316 314 314 316 314 313 312 315 316 312 326 340 339 340 343 343 346 346 347 349 350 352 349
302 302 303 303 303 303 304 303 304 304 304 304 304 304 303 301 299 300 303 305 305 306 307 309 308 311 315 311 306 308 310 315 316 310 309 314 316 314 313 315 313 312 310 310 313 314 315 314 314 314 313 314 313 312 313 313 318 319 314 317 317 310 311 313 314 316 314 314 314 313 315 313 316 318 312 322 337 338 340 342 342 345 345 346 347 347 347 346
302 303 303 303 303 303 303 303 303 303 303 303 303 303 301 299 300 303 306 306 306 306 307 309 308 310 315 309 309 314 313 314 314 310 312 313 315 314 314 313 311 311 311 311 313 314 315 314 314 317 314 313 314 313 313 313 316 318 314 314 316 313 311 312 314 315 313 314 313 313 315 314 318 318 312 320 335 339 340 341 343 345 344 344 344 343 344 343
302 302 303 303 303 303 303 303 303 303 303 303 303 301 299 299 303 307 308 307 307 306 307 310 310 313 317 312 313 316 313 312 312 311 313 314 315 314 314 314 312 312 312 313 315 315 315 314 316 319 315 313 314 313 314 313 312 316 314 313 315 314 312 312 313 314 313 313 314 314 313 314 317 316 316 323 334 339 341 341 342 344 343 342 342 342 343 342
302 302 303 302 302 303 303 303 303 303 303 303 302 300 302 306 309 311 309 309 312 310 311 313 312 316 316 312 312 314 313 312 311 311 313 315 315 314 314 315 314 315 315 317 318 316 316 315 315 316 314 314 314 312 313 312 311 315 316 315 314 312 313 314 313 314 313 312 314 314 313 315 316 317 321 325 333 339 340 341 342 342 341 341 340 341 343 343
302 302 302 302 302 302 302 303 303 303 303 303 302 302 310 315 316 317 312 310 313 313 312 313 312 314 312 310 310 313 313 312 310 310 312 314 314 314 314 315 315 316 318 320 320 318 316 315 315 315 315 316 316 315 313 312 312 314 315 314 313 312 314 315 316 315 313 313 314 314 315 316 317 321 322 323 334 340 338 341 342 341 341 340 341 340 342 344
302 302 302 302 302 302 302 302 302 303 302 303 302 304 312 316 315 318 315 312 312 311 312 311 310 313 311 309 310 311 312 311 309 309 311 313 314 315 315 315 316 317 318 318 319 318 315 316 317 315 315 316 318 320 318 315 316 315 315 314 313 314 315 317 318 314 314 315 313 316 318 316 320 326 322 327 341 342 338 342 342 341 340 338 338 340 342 344
301 302 302 302 302 302 302 302 302 303 302 302 302 302 306 308 306 309 309 309 310 311 312 311 310 311 310 311 311 311 312 311 309 309 311 313 313 314 314 314 316 317 317 316 317 317 316 317 316 314 314 315 317 320 319 318 319 317 316 315 315 316 315 319 324 316 315 318 316 316 315 318 331 332 326 331 341 340 337 341 340 339 339 337 336 340 343 343
301 302 302 301 302 302 302 302 302 301 301 301 301 301 303 302 302 303 305 309 309 311 314 314 313 312 311 312 312 313 313 312 310 309 311 313 313 314 314 314 316 316 316 317 319 318 318 317 315 313 314 315 317 319 317 317 319 320 318 315 315 316 314 319 323 317 320 323 321 321 321 330 341 334 328 327 328 337 338 336 338 337 337 336 334 339 343 343
301 301 301 301 301 302 302 302 300 301 303 302 302 304 303 303 304 303 306 312 312 310 312 313 314 313 311 312 313 314 313 313 311 309 311 313 312 312 313 313 315 315 316 317 318 317 317 315 314 314 314 315 317 317 317 317 318 322 322 316 314 316 317 318 318 320 328 331 329 327 326 338 344 331 327 324 320 331 338 336 337 336 335 334 334 339 343 342
301 301 301 301 301 302 301 300 301 303 303 302 304 306 305 306 307 305 308 317 318 313 310 310 312 313 312 313 314 314 312 313 313 310 311 312 311 312 312 313 314 315 316 315 316 317 316 314 314 314 314 314 314 315 317 318 318 320 324 322 317 319 321 319 319 323 324 322 326 323 317 328 342 334 328 326 321 323 332 339 339 336 336 334 334 339 342 341
301 301 301 301 301 301 301 302 303 303 302 304 306 307 306 307 309 308 311 320 322 316 309 309 311 311 311 314 314 313 312 314 313 310 311 311 311 312 310 311 313 314 315 315 316 316 315 316 315 314 315 313 313 313 314 318 319 318 324 328 322 321 323 320 319 320 318 318 324 322 316 321 331 334 331 328 325 320 324 332 336 336 337 334 332 336 340 341
301 301 301 301 301 301 301 303 302 301 303 306 306 307 307 308 309 309 313 321 322 316 309 307 309 309 311 314 313 313 315 315 312 310 311 311 311 311 311 311 313 313 314 314 316 317 316 317 317 315 314 313 314 313 313 317 318 320 329 326 319 320 321 319 316 317 320 323 326 327 321 317 320 328 329 324 329 334 329 327 329 334 336 336 334 334 338 340
300 301 301 301 301 301 301 301 301 301 304 305 307 309 308 307 310 312 317 323 322 313 309 306 308 310 310 312 312 311 314 315 312 311 310 311 311 311 311 311 313 313 313 315 317 319 319 318 318 316 314 314 314 313 313 315 317 325 330 321 319 319 317 318 316 318 326 321 321 330 321 313 320 329 328 324 331 339 336 332 331 332 333 335 336 336 338 339
300 300 300 301 301 300 300 301 301 303 304 305 307 309 308 308 313 317 320 326 321 310 309 309 309 310 309 311 311 310 311 311 312 312 310 311 312 312 312 311 312 313 312 315 316 318 318 318 317 315 315 314 314 314 314 316 318 323 325 320 319 317 316 324 321 320 330 322 320 331 321 311 321 331 333 335 336 335 334 335 334 333 333 335 337 339 339 338
300 300 300 300 300 300 300 301 302 304 304 305 306 308 309 311 317 319 317 321 321 312 310 310 309 309 309 310 310 309 310 310 310 311 311 312 312 312 313 312 312 314 315 315 315 315 314 315 317 315 315 316 314 315 315 317 319 319 321 317 317 320 323 334 336 326 324 322 325 332 322 312 315 326 335 338 335 333 334 334 334 335 336 337 337 337 338 337
300 300 300 300 300 300 300 301 302 305 304 304 306 308 312 316 319 322 320 316 317 313 309 310 310 310 309 309 310 309 309 311 310 310 312 314 313 313 315 314 314 317 319 316 314 316 313 312 316 317 317 316 315 317 316 319 320 317 321 317 316 326 325 326 335 325 318 325 332 328 318 314 316 324 334 335 332 332 331 331 333 336 336 334 333 333 333 333
300 300 300 300 300 300 301 301 302 305 303 303 307 312 317 316 315 322 324 318 317 314 312 311 311 310 309 309 310 309 309 311 311 309 310 313 315 314 314 318 318 316 319 320 319 320 318 315 315 316 319 317 316 318 316 317 318 316 322 319 316 322 320 320 327 324 322 328 329 323 315 314 319 325 332 335 335 333 331 331 332 335 334 331 330 329 329 329
300 300 300 299 300 300 300 299 299 300 300 303 309 316 320 317 316 320 321 318 318 315 312 312 312 311 310 309 310 310 310 311 311 310 309 313 316 315 313 317 320 318 322 326 321 318 319 319 316 312 316 318 317 317 316 318 318 314 318 319 318 320 318 320 324 322 322 322 323 323 313 314 326 330 331 335 335 332 330 330 330 331 332 330 329 328 327 327
299 299 299 299 300 300 299 297 298 298 300 306 313 318 318 317 321 322 315 314 314 312 311 313 312 312 311 310 311 312 311 311 311 309 309 312 315 317 315 313 315 317 320 321 319 318 319 321 322 315 314 317 317 317 321 323 320 316 318 318 320 325 324 323 323 321 320 319 323 322 312 320 336 335 331 333 332 330 329 328 329 330 330 329 328 328 328 327
299 300 300 300 300 301 299 299 299 299 301 309 316 319 318 317 322 323 317 314 311 309 310 311 312 313 313 313 313 312 312 312 311 308 308 312 315 318 317 313 313 316 316 318 320 318 314 320 326 318 315 318 316 317 321 320 318 317 317 315 315 322 326 324 326 329 327 322 322 323 322 329 337 334 331 332 331 330 329 328 329 329 329 329 329 328 328 327
300 300 301 301 302 302 302 303 301 300 303 312 317 317 318 318 320 320 317 314 311 308 308 311 313 313 313 314 313 313 312 313 313 310 308 309 312 315 314 313 312 312 316 322 324 318 314 323 329 317 315 318 316 318 318 317 322 320 315 314 315 318 319 320 323 326 324 319 320 330 336 334 333 334 332 331 332 332 329 328 329 329 329 329 329 328 328 328
300 301 302 303 303 304 307 306 301 300 306 315 318 317 316 315 315 314 314 314 312 308 307 312 315 313 313 315 314 313 313 313 314 313 311 309 311 312 311 312 313 312 314 317 320 323 320 323 329 318 312 316 316 318 318 317 323 320 314 315 315 313 318 325 328 323 318 321 325 332 338 336 336 337 333 331 334 332 330 329 328 328 328 328 328 327 327 327
301 301 303 305 304 307 309 305 301 303 310 316 318 317 315 314 312 312 313 313 311 308 307 310 312 311 313 314 315 314 312 313 315 314 313 311 314 316 312 310 312 311 312 312 315 323 320 318 327 325 314 316 316 316 317 316 317 318 317 317 317 319 323 324 324 320 317 322 322 323 332 336 337 337 333 333 335 333 331 330 328 328 327 327 327 327 327 327
301 302 308 309 306 308 307 303 304 308 313 315 317 316 314 313 312 311 312 312 310 308 308 308 308 311 312 312 313 314 313 314 315 315 314 312 316 322 318 314 315 313 311 312 313 319 321 319 325 328 318 315 316 317 319 318 315 315 314 315 319 327 327 319 318 320 320 323 323 322 331 336 335 334 333 333 334 332 331 330 328 327 327 328 328 328 328 327
302 306 312 312 309 308 305 305 308 311 314 315 316 314 311 310 310 311 311 311 309 308 309 308 309 312 312 311 311 312 314 314 313 316 320 319 320 323 321 319 321 319 314 311 309 314 318 316 324 331 322 316 317 317 320 320 317 315 314 315 315 318 320 317 318 320 318 325 329 327 331 334 332 332 332 333 333 331 330 329 328 327 327 328 328 327 327 326
304 309 313 312 308 305 305 309 312 312 313 314 312 309 308 308 309 310 309 309 308 307 308 308 309 311 311 311 311 310 313 315 316 320 325 326 324 324 324 321 321 323 324 320 314 314 317 318 325 330 321 318 322 318 316 318 316 316 316 317 315 315 318 318 320 325 322 325 331 331 331 330 330 332 331 332 332 329 328 327 327 328 327 326 326 325 324 324
307 312 313 310 307 306 309 312 312 312 312 311 308 306 306 307 308 308 308 308 308 307 308 309 310 311 310 310 310 310 313 316 318 321 325 326 325 325 325 323 321 324 332 332 323 322 330 327 321 321 320 321 320 316 318 317 315 319 320 319 317 318 321 320 324 332 327 322 329 335 333 327 327 331 330 330 330 328 327 326 325 325 324 323 323 322 322 322
311 314 313 309 307 308 310 311 312 312 311 310 308 306 306 306 307 307 307 308 308 306 308 310 311 312 310 309 309 310 315 318 318 321 324 325 325 324 322 323 325 326 333 336 329 328 333 325 318 321 328 331 322 317 321 320 319 328 331 327 323 320 322 324 331 338 331 323 328 336 334 328 327 329 328 328 327 326 325 325 324 323 322 320 319 318 319 319
311 314 314 311 309 309 311 313 315 314 312 311 309 308 308 308 307 307 307 309 309 308 310 311 311 311 310 309 310 310 313 317 317 319 323 325 325 322 320 323 327 329 332 333 331 330 325 323 327 326 321 325 324 320 325 325 324 329 331 329 326 325 328 326 328 336 331 323 328 335 334 330 329 328 327 326 325 324 324 323 322 322 320 318 317 316 315 315
310 313 314 313 311 309 313 316 316 317 317 315 315 315 313 311 309 308 308 310 310 310 313 313 312 312 312 311 311 311 314 317 316 317 324 327 325 321 321 324 326 329 331 330 331 333 326 327 338 336 324 325 326 323 327 330 328 328 329 329 327 330 334 325 325 338 336 325 329 335 332 330 331 328 326 326 324 324 323 321 320 319 318 316 315 314 313 312
311 313 313 315 313 310 315 316 314 317 319 318 319 319 315 314 313 309 309 311 310 311 314 312 311 313 315 315 314 313 316 319 318 319 325 327 325 321 322 324 326 328 330 329 332 338 334 329 334 338 333 331 328 325 327 329 330 331 330 329 329 331 335 336 337 340 335 329 329 329 330 333 333 329 326 325 323 323 322 320 319 317 316 314 313 312 312 311
311 313 314 315 313 312 315 316 315 317 319 317 318 318 315 316 315 311 312 311 308 310 313 312 312 313 313 316 317 314 316 322 322 320 323 325 325 325 323 323 326 327 329 329 331 339 340 333 330 331 329 327 326 326 326 326 328 329 329 329 330 331 335 344 344 331 328 335 333 326 330 335 332 329 327 324 322 321 319 318 316 315 314 313 312 311 311 310
310 313 314 315 315 314 315 315 315 316 316 316 318 317 316 318 318 314 313 312 310 312 315 315 315 313 310 314 321 316 315 323 324 320 323 325 327 330 328 323 323 325 329 331 329 333 338 333 329 329 328 326 325 324 324 324 323 324 325 327 328 330 333 339 338 328 330 340 335 327 330 332 328 326 323 320 318 316 315 314 314 313 312 311 311 310 310 309
311 313 316 316 315 316 315 314 315 315 316 317 318 318 316 317 319 315 312 314 315 314 315 315 314 312 310 316 327 323 319 326 326 320 323 326 326 329 329 325 324 323 328 334 330 329 334 330 326 328 329 326 326 324 322 322 322 322 323 323 324 327 328 329 329 327 328 332 330 327 327 325 322 320 317 314 313 311 310 310 310 310 311 310 310 309 309 308
312 314 315 315 315 316 314 314 316 317 317 317 317 318 317 316 318 316 313 316 317 314 315 315 313 312 311 314 322 322 320 327 326 319 324 327 323 325 326 323 324 324 326 331 330 327 330 327 324 329 330 326 325 324 320 320 321 321 321 321 323 327 327 326 326 325 325 326 325 324 323 320 316 314 312 312 310 309 308 308 307 308 308 308 308 307 307 306
310 312 312 313 316 316 314 316 317 316 317 317 316 317 317 316 317 317 314 313 313 313 315 315 313 314 314 313 316 316 316 320 319 315 320 322 319 323 325 321 324 327 325 326 328 328 329 326 324 330 330 324 323 323 320 320 322 322 320 319 321 326 326 324 323 323 323 324 323 322 322 318 314 311 310 309 308 308 308 307 307 307 306 306 306 306 305 305
310 311 311 312 315 316 315 316 315 313 317 322 321 316 314 315 316 317 315 312 311 313 313 314 315 316 316 315 313 312 312 312 311 311 314 313 311 316 321 322 325 329 328 327 328 328 328 325 325 330 328 323 323 323 321 324 328 326 321 317 318 322 324 322 321 321 322 322 322 322 320 315 311 310 309 308 307 307 306 306 306 306 305 305 304 304 304 303
Wind_Speed
10 10 10 11 12 11 11 11 11 11 11 11 11 11 12 12 12 13 12 12 12 12 13 13 12 13 14 15 16 16 18 20 22 17 11 20 20 13 13 10 7 7 12 11 8 4 3 4 6 7 2 1 2 2 3 5 2 2 2 3 4 4 4 4 3 4 1 3 5 4 5 5 5 4 2 6 10 10 10 8 8 11 11 10 16 24 26 23
11 11 11 11 12 12 12 12 12 12 12 12 12 12 12 13 13 13 13 12 12 12 12 12 12 13 14 14 15 16 19 21 19 17 21 26 21 14 15 12 8 7 10 10 11 9 6 4 6 5 2 0 2 2 3 3 3 4 3 4 5 5 4 2 3 7 4 2 3 4 4 6 4 3 2 4 5 9 11 7 8 13 11 12 17 22 22 23
11 11 11 12 12 12 12 12 12 12 12 12 12 12 13 13 13 13 13 13 13 12 12 12 12 13 13 14 14 15 17 16 10 14 22 22 21 21 17 14 12 9 8 7 10 15 10 7 8 5 3 2 3 2 3 2 3 4 4 4 6 5 4 5 4 7 7 4 1 4 3 6 6 3 4 5 4 7 9 6 7 10 10 11 11 15 19 19
11 11 12 12 12 13 13 13 13 13 13 13 13 13 13 14 14 14 14 13 13 12 12 12 13 13 12 13 13 13 12 8 4 7 12 11 14 21 22 18 14 10 8 6 8 15 12 5 6 5 3 3 3 2 3 4 2 2 5 5 6 4 4 8 6 7 7 3 2 3 5 6 7 5 3 7 5 3 6 9 10 14 15 14 12 14 17 16
11 12 12 12 12 13 13 13 13 13 14 13 13 13 13 14 14 14 14 14 13 12 13 12 13 13 12 12 10 9 6 2 4 5 6 6 8 18 25 21 14 10 9 8 8 12 9 4 2 3 3 3 3 1 4 6 3 2 4 6 7 5 5 9 5 6 5 3 4 4 6 3 5 5 0 7 6 4 6 7 12 17 17 17 15 14 15 13
11 12 12 13 13 13 13 13 14 14 14 14 14 14 14 14 14 15 14 14 13 12 13 11 12 12 11 11 6 3 1 1 6 4 4 4 2 14 24 21 13 11 11 12 9 8 6 3 2 3 3 4 4 5 6 5 4 4 6 5 8 8 7 7 2 5 4 5 3 2 1 1 5 6 4 4 1 5 8 9 13 16 17 18 16 13 13 13
12 12 12 13 13 13 13 13 14 14 15 15 14 14 14 14 15 15 15 14 13 12 13 11 12 11 11 8 2 1 2 7 12 5 6 5 3 10 19 18 13 13 14 13 9 6 5 5 5 4 4 5 5 7 7 5 5 6 7 7 8 9 9 8 4 6 6 7 5 2 1 0 3 4 5 5 1 7 13 12 14 14 15 16 14 12 12 13
12 13 13 13 13 13 13 14 14 15 15 15 15 15 14 15 15 15 15 14 13 12 12 11 11 10 10 6 2 2 0 12 16 10 11 8 7 11 16 17 15 16 16 16 12 8 5 4 6 5 5 7 5 5 5 3 4 7 9 9 7 7 8 9 7 7 6 6 5 4 2 4 5 2 3 2 6 11 13 12 13 13 13 13 12 13 12 11
12 13 13 13 13 14 14 14 15 15 15 15 16 15 15 15 15 16 15 14 13 12 12 11 10 8 6 4 2 2 6 15 15 10 10 11 11 13 16 16 17 17 16 17 14 9 5 5 6 6 5 6 5 5 2 1 4 6 9 9 7 7 7 8 6 7 7 5 5 5 2 7 4 1 2 3 10 11 12 13 13 14 13 11 11 12 11 11
12 12 13 13 13 14 14 15 15 16 16 16 17 16 16 16 16 16 15 14 12 11 11 9 9 6 4 2 3 0 8 11 10 8 10 13 14 15 17 15 17 19 16 14 14 12 8 6 4 3 3 3 4 5 4 4 4 4 6 8 9 9 7 5 4 5 5 4 5 6 3 6 3 2 3 3 12 12 13 12 11 12 12 11 10 10 10 11
13 13 13 13 14 14 14 15 16 16 16 17 17 17 17 17 17 16 15 14 12 11 10 8 7 4 2 2 4 5 6 4 6 8 11 15 18 18 19 19 18 22 18 11 15 18 13 10 5 2 2 3 3 5 5 4 4 6 7 7 8 7 6 5 4 5 3 2 5 8 4 6 1 3 5 6 12 12 14 12 10 10 9 10 9 9 9 10
15 14 13 13 14 14 14 15 16 16 17 17 18 18 18 18 17 16 16 14 12 10 8 7 4 2 2 1 5 13 8 2 4 7 11 16 17 17 18 20 19 23 21 12 14 20 18 15 6 1 4 3 3 3 4 4 5 7 6 5 6 4 4 6 5 4 3 1 5 7 1 5 2 5 6 10 11 11 13 11 10 9 8 9 9 9 8 9
14 14 14 13 14 15 15 15 16 17 17 18 19 19 19 18 17 16 16 14 12 10 7 5 2 2 2 0 11 20 15 8 7 9 14 17 15 13 14 18 18 22 23 17 17 22 21 17 9 5 5 2 2 3 4 5 3 6 4 2 2 6 5 6 4 3 3 3 6 6 2 6 6 9 6 11 12 12 13 10 10 8 8 8 8 8 7 10
13 13 14 14 15 15 15 16 17 17 18 19 19 20 20 19 17 16 14 13 11 8 5 2 2 4 3 5 16 19 17 16 18 18 17 18 16 9 11 17 16 19 22 19 19 19 17 16 11 7 3 3 3 3 5 5 2 3 3 1 1 1 4 4 3 3 2 3 6 8 2 7 7 10 6 11 14 14 13 10 10 8 7 8 7 8 7 8
13 13 14 14 15 15 16 16 17 17 18 19 20 21 21 19 17 14 12 11 9 5 4 3 6 6 2 8 16 15 13 12 18 22 17 18 18 8 10 18 17 19 20 19 19 16 15 14 9 5 2 2 1 3 4 4 3 1 0 3 2 2 4 4 2 6 5 3 5 8 3 6 7 11 7 11 15 14 13 10 9 9 9 9 8 8 7 5
14 14 14 14 15 16 16 17 18 18 18 20 21 22 21 19 15 11 9 9 6 3 4 3 7 5 1 6 10 13 10 7 13 17 15 20 21 11 12 16 16 18 18 19 19 17 15 10 4 4 1 1 2 3 4 4 5 2 2 3 2 2 2 4 5 7 9 4 4 7 5 4 5 8 3 9 15 13 13 11 9 10 9 10 8 7 7 6
14 13 14 15 16 16 16 17 18 18 19 20 22 23 20 15 11 8 8 7 3 4 6 4 6 5 3 8 9 9 8 8 10 12 16 22 21 14 11 9 8 13 13 14 16 13 9 4 2 2 2 2 2 5 4 2 4 3 1 2 3 3 2 2 6 4 9 8 6 8 7 5 7 5 5 5 16 14 13 12 10 9 8 9 8 8 8 8
14 14 14 15 16 16 17 17 18 18 19 20 23 23 18 9 7 7 4 4 4 4 3 2 5 3 5 9 6 4 5 9 12 12 18 22 20 17 12 7 5 7 6 6 8 6 3 1 1 1 1 1 3 5 3 5 4 1 1 1 4 3 1 3 6 5 8 11 9 9 8 9 9 6 7 1 14 15 14 12 10 10 9 7 7 8 7 9
15 15 14 15 16 16 17 17 17 18 18 21 22 17 8 1 3 2 3 6 5 3 2 3 5 2 4 6 5 5 6 11 12 11 17 21 18 16 11 8 5 6 4 2 4 3 2 1 2 2 2 4 4 5 7 7 2 1 2 2 3 4 4 5 8 7 9 11 9 8 8 9 9 7 4 4 8 8 10 12 9 8 8 6 6 7 7 9
14 14 14 15 16 16 17 17 17 17 17 19 20 12 1 2 2 1 2 4 6 5 3 4 8 5 6 3 3 6 7 9 11 9 16 19 14 9 6 4 4 4 3 4 2 2 3 2 2 5 6 6 6 7 9 7 3 3 3 3 5 5 5 6 9 9 9 9 7 8 8 8 8 7 4 4 6 4 5 8 7 8 7 7 8 8 8 8
13 14 14 15 16 17 17 17 17 16 15 15 15 8 1 2 1 1 2 6 10 12 10 8 12 12 12 10 11 10 7 5 8 8 17 18 10 7 4 3 5 3 3 5 2 1 3 4 6 7 8 8 7 8 7 5 4 5 4 5 6 4 5 8 9 6 8 7 4 6 7 7 8 6 4 6 9 8 8 8 7 9 8 8 9 9 8 7
14 14 14 16 16 17 18 18 17 16 17 15 10 5 6 6 2 2 2 4 8 13 14 11 11 15 18 20 24 16 6 6 8 6 14 15 8 5 4 4 5 4 3 4 2 1 2 5 9 9 8 7 6 6 5 3 5 5 4 3 5 4 4 7 7 3 3 4 2 4 6 6 8 5 2 6 9 8 12 13 12 12 10 8 10 10 9 9
15 14 15 16 16 18 18 19 19 18 18 14 9 9 7 8 7 11 7 2 5 8 10 9 10 11 14 16 19 13 6 6 7 7 13 14 6 5 5 5 6 5 3 4 4 4 3 6 10 9 6 5 7 7 4 3 4 3 4 3 4 5 2 4 5 7 5 2 4 4 4 4 5 6 6 2 5 6 11 13 12 13 13 13 13 12 13 14
15 15 15 16 17 18 18 21 19 14 12 12 15 14 10 15 16 17 8 1 5 5 9 13 9 6 14 14 9 8 7 6 7 8 13 13 4 4 6 5 6 5 4 7 7 5 7 8 7 7 7 7 7 7 5 4 4 4 5 5 5 7 4 3 3 7 6 4 3 5 4 5 4 5 7 4 2 4 8 9 8 9 10 11 12 12 14 16
15 15 15 16 16 17 20 20 13 7 11 12 15 14 18 21 18 12 4 1 4 4 6 11 8 8 17 13 7 6 5 6 7 8 13 14 8 5 4 4 4 5 7 8 7 5 10 9 3 5 7 8 7 7 6 6 4 5 5 8 9 8 6 3 3 5 6 5 2 4 4 5 5 4 7 5 4 1 4 6 9 10 7 7 10 11 11 11
14 14 15 15 15 18 18 10 6 11 13 9 9 15 18 17 10 6 3 3 3 3 3 7 7 9 12 8 6 5 3 5 7 12 16 16 14 9 4 2 2 6 8 6 5 3 6 6 6 8 8 8 8 8 6 8 5 4 5 8 7 3 2 1 4 5 2 3 3 3 5 3 5 5 7 6 6 3 2 6 8 7 5 6 9 9 8 8
14 13 14 14 14 16 12 6 10 14 7 5 13 17 14 14 8 5 3 3 3 3 4 4 4 9 10 9 10 7 4 5 4 11 15 16 14 7 5 5 3 5 6 3 3 4 5 7 8 9 8 8 7 7 7 9 6 4 6 6 4 1 4 1 5 4 3 3 4 4 5 3 3 5 6 4 5 6 2 4 8 9 9 7 6 5 6 8
14 14 13 13 13 13 11 12 14 9 6 11 19 16 14 14 7 3 3 1 2 2 4 3 3 8 7 8 12 7 5 5 4 7 14 19 14 5 5 8 6 7 7 5 5 5 4 8 10 10 8 6 6 8 8 10 6 6 7 5 3 2 3 1 5 4 2 2 4 6 2 3 2 6 6 5 5 6 7 6 7 9 12 10 8 8 7 7
14 14 13 13 14 13 10 11 11 7 10 18 21 18 15 11 4 2 3 1 2 1 3 2 3 6 4 6 11 8 5 4 4 6 11 14 12 5 4 8 7 7 5 6 7 6 4 8 10 9 7 6 9 11 8 9 6 6 5 2 1 2 2 3 5 4 2 4 1 7 1 3 2 6 7 5 4 5 7 7 8 4 2 5 6 6 5 5
13 13 13 13 14 12 9 10 13 9 12 20 22 18 11 6 2 3 1 3 3 0 2 1 2 5 6 7 8 8 7 4 3 5 7 8 9 4 2 5 5 3 2 2 6 7 6 6 5 6 7 8 10 10 8 10 7 3 4 2 3 5 4 4 3 4 4 3 5 7 1 5 1 5 5 4 4 4 5 6 8 11 12 10 8 8 8 8
14 14 13 13 14 12 9 9 10 6 9 20 22 13 4 3 2 3 3 3 2 1 2 2 2 5 9 9 7 8 9 4 3 6 7 6 7 4 1 2 3 1 2 3 4 6 5 4 4 4 6 7 7 5 6 8 7 5 4 3 1 4 5 4 4 4 4 2 6 6 1 7 3 2 4 5 5 6 6 7 10 13 14 12 10 9 9 8
15 15 14 15 14 12 11 9 6 6 12 21 18 6 4 2 0 2 2 3 1 2 2 4 4 5 10 9 7 8 8 4 3 5 6 6 5 5 4 4 4 2 1 3 3 5 4 5 5 4 4 7 8 4 1 1 4 6 5 5 3 1 2 2 3 1 1 4 6 5 1 4 2 1 3 6 7 10 10 9 11 12 12 12 11 9 8 8
17 17 18 18 17 18 21 17 12 14 17 19 10 2 4 2 3 3 3 2 1 1 1 3 5 6 10 8 5 7 7 4 3 4 6 7 6 6 5 5 5 5 2 4 3 2 4 6 5 3 3 3 7 6 2 1 2 5 5 5 4 2 2 1 2 1 1 4 6 4 1 1 2 0 4 5 8 9 10 11 10 11 12 12 11 9 8 8
19 20 21 20 19 22 22 19 17 15 14 13 4 4 3 3 3 3 3 1 1 3 3 2 4 6 9 7 5 7 5 3 5 5 5 6 6 5 5 5 4 5 3 3 2 3 2 5 4 4 4 2 5 7 7 5 3 4 5 6 5 4 4 3 2 2 3 3 5 4 1 3 4 2 4 1 8 10 10 10 10 13 12 10 10 10 9 8
21 20 20 19 19 19 17 16 15 10 7 5 3 3 2 4 2 1 2 1 2 4 4 3 6 6 6 5 5 7 6 4 6 6 5 7 6 6 5 5 6 4 4 3 2 3 4 4 7 6 5 5 5 5 6 7 3 3 3 6 3 5 6 3 3 5 4 0 3 2 1 1 3 4 3 3 10 10 10 12 13 15 12 11 11 11 10 8
20 19 15 15 17 13 9 11 13 10 4 1 4 2 4 3 2 1 2 2 2 5 6 2 7 6 4 4 4 6 6 4 5 5 4 7 7 6 6 5 7 8 6 4 3 2 3 4 7 3 3 6 7 6 5 6 4 1 3 4 4 5 8 4 1 1 3 1 3 1 3 0 2 3 2 6 10 10 11 12 13 13 12 12 10 8 8 8
18 15 10 13 14 8 6 9 15 13 4 2 3 4 3 2 3 3 2 2 4 6 4 0 4 4 3 4 3 6 7 4 4 5 3 5 5 6 7 5 6 10 9 6 3 2 4 3 7 2 4 6 6 8 5 5 6 4 3 5 2 3 5 4 2 2 3 2 5 0 5 4 3 1 2 6 9 10 11 11 11 11 11 10 8 7 8 7
15 11 10 12 10 7 7 14 20 13 2 2 3 3 2 3 4 3 4 5 6 6 3 4 0 1 3 4 3 6 9 5 5 5 4 4 2 1 4 4 6 10 11 9 3 2 3 2 7 4 5 5 3 6 3 1 2 5 5 4 3 3 0 1 2 2 2 3 3 2 2 2 2 2 1 4 7 10 10 10 10 10 9 8 7 8 9 8
10 6 6 5 9 11 14 21 19 7 2 2 3 2 2 5 6 7 8 6 6 4 3 3 1 1 3 3 1 4 8 9 7 5 4 4 1 1 1 2 4 7 9 11 6 2 3 2 4 6 3 4 3 3 4 3 4 2 2 1 2 4 3 2 3 4 4 4 2 2 2 1 3 3 2 4 5 9 10 9 9 10 8 6 5 6 7 7
4 2 3 5 14 18 23 22 10 2 2 3 3 2 3 5 5 8 9 7 4 1 2 1 1 2 2 0 2 2 4 8 8 5 3 2 3 1 3 4 2 4 3 8 6 2 2 2 2 6 5 2 2 1 6 7 2 1 2 1 1 1 2 2 2 2 4 4 3 3 1 3 4 2 3 5 6 9 10 9 8 8 9 7 6 7 7 7
3 2 2 8 22 27 23 12 2 1 2 2 3 3 5 6 6 9 10 5 3 1 2 3 1 1 1 2 4 4 1 3 3 3 3 2 3 2 3 3 2 3 1 4 3 2 2 3 3 3 3 1 2 1 4 8 7 6 4 4 5 4 3 3 2 2 2 4 4 5 3 4 4 0 2 4 6 8 10 11 9 8 9 8 7 8 8 8
2 1 1 14 30 29 15 2 0 2 2 2 3 4 6 6 6 9 9 3 1 1 0 1 1 1 1 2 3 4 2 4 4 4 3 3 4 2 3 3 2 3 3 3 1 1 3 4 3 3 2 4 3 6 9 3 3 6 3 1 2 3 4 5 4 4 1 3 2 4 3 3 3 2 3 5 6 6 8 10 10 8 8 8 8 9 9 8
2 1 3 17 28 20 7 1 1 2 3 3 4 7 7 6 6 7 6 3 2 1 2 2 2 3 3 2 3 5 4 4 5 5 4 3 5 4 5 2 4 4 3 2 1 1 2 3 2 3 4 3 2 6 13 11 7 5 3 2 1 1 4 6 5 3 4 4 2 4 2 2 2 3 4 7 8 7 6 8 9 9 8 8 8 8 8 8
2 2 2 12 21 11 4 2 2 2 3 4 5 7 6 6 8 8 5 3 2 1 2 2 2 2 2 3 3 6 6 4 5 5 4 3 2 5 7 5 6 4 3 1 2 1 1 1 3 1 2 4 3 2 6 8 5 2 3 4 3 1 3 4 2 2 3 2 3 5 2 3 3 4 5 8 9 9 8 8 8 8 7 7 7 8 9 9
2 1 1 5 12 6 2 2 2 1 3 3 4 6 5 5 7 6 2 2 3 2 2 1 2 2 2 4 5 6 7 4 2 2 3 4 2 3 6 7 6 5 3 2 1 2 2 2 3 5 4 4 2 2 1 2 2 2 3 6 6 6 5 4 3 3 3 1 3 5 3 3 6 7 7 9 10 9 9 9 9 8 7 7 7 8 8 8
0 1 0 0 3 2 1 1 1 1 3 2 3 5 5 4 2 0 2 3 5 4 2 1 3 4 5 5 5 6 7 6 5 4 3 3 1 1 5 6 6 5 4 7 6 3 4 3 3 5 5 5 5 4 3 2 3 2 3 8 8 6 5 4 4 3 4 3 3 1 5 7 9 8 8 9 9 9 8 9 9 8 7 7 7 8 8 8
1 0 1 2 2 2 3 3 2 3 3 1 2 4 4 2 1 3 3 2 2 3 3 3 5 5 4 3 4 3 4 5 6 5 4 3 1 2 4 4 6 7 6 6 6 3 5 4 5 5 6 5 6 6 4 5 6 3 3 7 8 7 7 7 4 2 5 6 2 2 6 9 8 8 9 9 9 9 8 8 8 7 6 7 7 8 10 9
1 1 1 2 1 3 3 3 4 5 5 3 3 4 3 3 3 1 2 2 2 3 3 3 5 5 4 2 4 3 2 4 5 3 2 3 2 3 5 4 5 7 5 4 5 3 6 2 4 4 7 7 7 8 9 10 7 6 6 6 7 8 9 7 3 1 2 5 5 7 8 8 6 7 8 7 8 10 9 8 7 7 7 7 7 9 10 9
1 1 2 1 0 2 3 3 3 4 6 5 3 3 1 3 3 1 1 3 4 4 4 3 5 6 7 5 5 3 2 3 2 1 1 2 2 2 3 3 4 5 5 4 4 2 5 1 2 3 7 7 5 6 9 10 8 7 8 6 5 7 9 7 5 5 5 6 9 11 11 8 6 8 9 8 8 9 8 8 8 8 7 7 9 10 9 9
1 1 1 1 2 1 1 2 2 1 3 4 4 4 0 3 2 2 3 4 1 4 3 4 3 6 10 10 8 5 2 5 5 2 2 3 2 1 1 1 2 3 4 4 2 3 4 2 2 2 6 5 6 6 8 9 10 9 8 8 7 6 7 7 5 5 7 7 8 10 10 7 5 7 9 8 7 9 10 9 8 8 8 9 9 9 9 8
3 4 2 1 2 2 0 1 0 2 2 2 3 3 1 2 1 0 3 3 4 2 1 5 6 6 8 10 10 6 3 5 7 5 5 4 1 1 2 2 2 2 3 2 1 3 3 3 1 4 5 1 4 4 6 9 12 10 8 9 9 6 5 5 3 2 3 8 10 9 6 4 4 7 9 9 9 11 11 9 8 7 8 9 9 8 9 8
4 4 2 1 2 3 1 2 0 1 2 3 3 1 1 2 2 2 3 4 6 6 3 6 9 6 6 8 8 3 1 4 5 4 5 4 1 1 1 2 4 4 2 2 2 2 3 4 2 3 4 1 1 1 1 4 7 5 4 5 6 4 3 5 5 6 3 7 8 5 4 5 6 7 9 10 10 11 10 8 7 6 7 9 9 8 8 8
Wind_Direction
321 323 322 322 322 322 322 322 324 324 327 327 326 328 326 327 327 328 329 329 330 329 329 329 330 330 328 330 333 335 330 321 314 308 262 253 259 252 241 210 176 195 205 217 219 203 168 182 213 207 198 318 204 230 225 203 180 143 161 203 234 225 225 209 223 294 315 273 296 357 48 62 351 335 81 62 71 85 77 62 65 57 57 84 104 124 134 141
318 318 318 319 319 320 320 320 321 322 323 325 326 325 325 326 325 326 326 327 329 327 329 329 329 329 328 330 334 338 330 320 311 289 260 256 260 251 236 214 191 186 183 198 207 191 167 185 205 185 135 215 227 215 216 208 168 169 172 195 226 217 225 217 232 294 298 226 307 348 51 53 336 272 95 85 104 99 85 64 74 81 79 89 105 123 134 141
314 315 315 315 316 316 318 317 317 319 320 322 323 323 324 325 324 324 324 325 326 327 328 327 328 330 330 331 337 340 327 320 310 273 268 265 252 243 230 204 192 195 192 199 205 195 191 197 191 165 141 223 255 227 223 242 203 187 180 213 241 226 263 269 232 271 264 198 75 330 31 44 316 297 82 115 122 98 114 120 104 112 122 118 120 129 137 143
313 314 313 313 313 312 314 314 314 315 317 318 319 321 322 322 323 322 322 324 324 326 326 327 331 330 330 334 339 336 326 319 286 263 279 276 244 228 217 206 198 204 212 223 218 200 203 218 195 176 172 225 264 235 228 240 234 200 185 210 235 220 269 270 251 260 252 176 106 323 32 35 313 319 96 129 106 81 163 165 149 146 143 141 146 144 145 145
315 314 313 313 312 312 312 312 313 313 314 315 316 318 319 320 321 319 321 321 322 325 325 327 329 328 331 336 337 328 335 338 283 295 307 291 242 212 203 201 200 207 213 220 216 198 211 250 212 205 205 230 245 221 240 233 216 248 232 220 228 216 252 264 255 249 254 54 47 12 30 17 321 321 340 118 128 198 192 173 154 150 151 153 156 153 149 142
315 313 313 312 311 312 311 310 311 312 312 312 314 315 317 318 317 317 318 317 318 322 325 328 328 330 334 338 341 323 61 268 300 336 355 345 232 200 193 191 196 205 209 207 197 187 206 213 187 208 208 227 214 207 243 235 183 236 265 242 233 218 228 259 242 216 211 85 72 22 3 347 22 323 304 62 158 190 145 148 150 150 153 152 151 150 146 143
314 313 313 311 311 310 310 310 309 311 311 310 313 313 314 315 315 315 315 316 318 322 325 327 330 333 339 353 29 73 96 267 275 262 303 325 120 169 179 186 194 198 200 194 183 179 179 169 189 199 205 228 211 215 241 245 189 212 250 248 239 223 221 247 230 209 184 141 178 174 120 24 58 299 318 31 78 128 124 141 145 145 145 143 146 148 147 148
310 310 311 311 310 309 309 309 309 310 309 309 310 311 312 312 312 312 312 315 317 322 324 326 333 336 345 12 83 29 110 252 259 255 273 261 162 155 169 182 193 195 192 191 188 177 164 182 207 197 208 226 214 218 229 256 234 211 231 241 239 229 221 233 226 214 202 172 177 143 140 229 202 227 322 84 115 114 123 134 135 136 137 140 148 149 147 146
309 309 309 309 309 308 307 307 308 309 308 308 308 309 309 309 310 310 310 312 315 319 321 325 331 340 359 18 72 6 257 250 260 266 253 220 186 175 176 184 194 193 189 196 194 178 179 194 204 200 210 230 236 245 221 263 257 215 220 236 240 241 234 236 234 215 216 206 158 135 190 257 238 169 289 161 126 118 124 131 136 137 139 144 149 147 143 141
313 311 308 308 308 307 306 306 307 308 308 307 307 308 307 307 307 306 307 307 311 314 317 326 329 349 20 22 98 190 264 261 260 246 223 208 198 191 193 200 197 191 187 193 195 194 203 204 208 225 240 253 249 252 239 223 255 251 242 248 239 242 246 234 232 225 226 220 165 141 197 263 259 165 265 165 135 132 129 134 140 138 142 147 147 145 141 143
312 312 309 308 308 307 306 306 306 307 307 306 306 306 304 305 303 303 304 303 306 309 313 320 326 11 40 51 119 217 260 281 244 210 203 208 206 207 212 212 202 191 184 185 204 207 211 231 253 334 267 262 271 270 254 243 312 297 269 271 257 252 264 238 222 233 233 237 171 138 192 259 255 180 222 168 146 139 134 136 138 140 144 142 142 144 143 148
307 309 309 307 307 307 307 306 306 306 306 306 305 304 303 302 301 300 299 301 304 304 309 313 317 86 66 35 206 232 232 172 211 203 207 213 218 231 227 217 209 198 189 184 211 213 215 232 235 206 248 265 307 289 275 293 324 292 261 264 284 322 307 253 228 209 153 211 179 132 299 291 245 229 206 158 151 140 135 137 142 148 147 142 140 138 138 146
306 306 307 308 307 306 306 306 306 307 306 306 304 304 303 300 298 296 298 303 304 299 302 307 291 128 93 217 239 246 246 240 260 270 250 237 237 246 231 218 215 207 199 192 206 212 217 230 219 210 244 247 274 262 294 308 298 283 272 217 292 354 321 249 213 185 161 202 176 128 334 281 250 252 214 153 154 143 139 146 150 155 153 150 141 130 135 143
308 307 306 306 307 306 306 306 306 307 306 306 304 303 302 298 295 295 300 302 299 294 283 275 171 136 121 255 262 265 271 274 271 269 258 241 237 241 216 211 215 212 205 202 210 215 226 242 232 222 237 211 241 293 327 333 296 280 304 328 34 337 284 251 180 169 193 218 152 120 224 256 263 265 224 156 160 152 149 157 153 161 162 154 141 133 141 146
310 309 309 307 306 307 306 306 307 307 307 306 305 304 300 295 294 297 300 296 298 284 238 198 160 139 58 275 275 283 286 278 258 251 245 227 222 219 205 207 214 215 209 210 218 230 251 257 233 206 247 259 44 15 342 337 316 312 258 313 341 191 264 308 250 177 190 247 140 130 217 264 265 256 228 162 168 158 150 158 157 167 164 153 148 141 145 139
309 306 309 308 306 307 306 307 308 308 308 308 307 304 297 295 296 292 285 284 296 245 199 179 173 159 26 275 284 293 275 247 237 236 228 217 212 206 205 207 213 213 211 217 227 244 259 262 216 175 173 333 78 63 16 355 325 340 151 233 242 193 267 321 289 202 188 211 172 170 205 276 263 253 249 155 170 160 150 159 163 171 165 154 152 141 142 128
308 306 309 308 307 308 307 308 309 309 310 310 309 303 299 298 286 271 273 271 261 194 175 142 147 151 266 273 294 292 245 221 229 219 209 211 211 212 202 190 203 208 212 225 235 245 253 249 204 193 73 92 135 96 54 324 278 302 349 244 246 216 197 255 301 252 182 181 200 202 202 243 254 268 338 171 172 158 151 161 165 171 166 160 152 139 139 134
308 308 308 308 308 308 308 309 310 311 312 312 310 305 303 293 248 248 250 177 143 153 185 148 126 132 262 260 271 273 219 207 213 201 199 204 209 217 208 184 186 190 201 236 243 233 226 286 121 125 18 147 159 116 146 224 212 217 193 243 278 290 252 246 287 273 176 177 197 200 208 245 262 297 345 171 165 156 155 162 167 169 166 164 143 132 137 136
306 306 309 308 308 309 308 309 310 312 315 316 316 315 309 249 185 215 179 154 135 133 208 203 170 160 278 241 228 277 263 209 197 188 192 198 204 215 214 204 179 150 161 206 262 248 170 15 70 138 217 211 195 162 194 219 191 192 206 198 261 302 295 246 259 251 176 171 190 187 201 235 260 294 343 106 135 147 162 161 162 163 157 146 126 129 140 140
305 306 309 308 308 310 308 309 310 312 317 322 327 337 44 137 104 145 187 202 218 232 256 188 189 247 300 287 282 311 292 209 194 192 197 200 193 194 214 207 144 124 151 157 235 279 133 153 223 198 207 215 206 193 213 235 255 287 300 290 278 292 283 262 268 252 174 160 193 184 191 232 258 282 269 159 119 110 159 159 155 158 152 144 137 139 145 146
307 308 309 309 310 309 307 308 307 311 316 317 323 330 251 244 158 144 216 229 230 233 252 222 196 237 263 271 285 310 330 225 208 203 203 202 173 160 217 182 140 177 183 149 180 302 122 188 231 215 210 212 210 213 226 248 263 263 270 280 288 282 266 279 285 249 164 145 194 182 174 235 257 260 237 156 135 142 166 167 165 168 165 152 141 140 145 144
310 310 310 310 309 307 307 308 306 308 306 300 299 273 265 269 243 336 306 247 240 220 235 242 214 240 255 262 271 280 308 247 223 216 200 192 161 163 209 161 154 198 177 130 146 230 184 225 236 225 212 210 229 233 216 228 251 254 260 277 289 273 270 296 314 351 93 119 176 181 168 229 265 271 252 150 150 168 173 175 176 174 169 156 145 145 148 147
308 308 311 309 308 309 308 307 306 303 296 286 253 223 257 285 294 319 319 266 268 211 208 232 219 242 254 262 266 250 247 237 210 212 190 176 164 166 178 171 170 183 165 156 170 177 207 236 231 221 202 197 240 251 221 234 266 253 250 261 272 272 274 285 317 360 12 102 150 154 164 253 302 329 315 209 160 178 182 184 183 176 172 167 160 156 158 159
306 307 310 308 309 312 309 309 306 302 305 289 255 246 288 312 304 307 312 237 278 236 205 212 195 224 239 244 250 206 210 224 198 201 182 171 155 139 171 184 162 171 193 188 178 182 232 244 219 199 199 197 226 252 227 217 265 255 235 227 250 266 239 215 310 351 355 7 68 93 59 318 335 348 307 312 89 180 192 188 192 200 186 163 158 163 168 168
307 305 307 309 313 314 312 312 305 313 327 293 266 289 322 323 308 289 290 14 283 264 215 205 182 226 232 225 231 209 205 220 202 184 175 173 160 140 183 187 147 187 206 193 180 202 243 247 197 182 210 205 215 244 217 181 224 264 240 218 222 238 226 187 43 27 15 352 332 91 70 302 321 333 284 297 359 316 201 198 200 209 198 155 161 174 177 172
308 304 308 311 314 319 320 312 301 320 316 277 288 328 332 333 323 242 209 20 285 251 177 169 163 208 215 190 191 196 195 229 199 171 174 178 173 160 177 192 157 195 200 188 181 218 236 215 191 200 212 209 215 240 213 167 179 247 242 210 198 224 264 113 87 80 48 289 282 85 116 247 316 315 272 287 330 4 160 221 227 210 201 189 182 175 169 170
309 305 311 312 315 326 327 300 311 321 300 285 333 337 336 341 330 208 150 16 269 219 153 157 164 181 184 172 166 153 180 215 156 163 178 180 177 158 159 187 191 198 194 162 189 233 197 184 202 204 205 210 217 238 207 159 157 231 240 196 162 283 300 340 97 116 194 229 322 1 119 137 305 278 282 331 353 360 41 234 243 215 200 198 181 151 160 180
306 308 311 312 314 316 304 294 304 303 272 319 338 338 345 346 326 169 107 15 222 145 144 170 176 170 172 166 162 169 216 184 142 188 186 178 177 150 163 195 192 199 196 160 201 248 190 187 204 194 196 208 215 234 201 151 161 236 232 207 186 208 256 330 98 132 195 108 342 313 80 101 268 283 325 25 45 353 343 327 287 235 202 185 163 147 165 178
305 309 308 311 312 304 298 287 276 272 304 330 340 336 339 344 335 100 90 210 201 144 147 132 144 171 169 143 162 198 232 167 173 199 173 174 183 160 178 204 195 207 209 172 207 252 223 202 198 179 184 200 217 235 200 156 196 226 196 186 355 42 44 45 96 122 48 65 251 274 9 93 276 316 343 13 35 339 323 328 324 312 156 138 123 116 117 95
306 307 305 312 310 307 318 290 266 278 320 332 337 334 337 351 26 85 123 235 240 212 119 126 158 165 161 148 163 200 209 180 171 161 153 178 191 174 191 194 175 193 248 226 231 247 249 234 206 177 184 196 210 223 191 172 190 175 131 111 9 4 27 42 62 85 53 21 253 258 66 96 81 323 338 351 347 329 328 342 6 35 54 58 54 61 68 72
305 303 304 305 300 305 319 290 262 262 314 331 336 337 359 23 57 116 168 260 280 121 117 180 188 155 161 161 164 191 201 196 127 141 160 180 184 192 249 185 158 105 2 311 268 271 278 260 245 220 195 179 176 193 190 178 155 108 92 105 58 342 8 21 354 38 70 283 262 257 113 92 103 284 330 354 3 21 26 23 34 46 51 51 50 52 62 74
303 303 300 292 286 281 266 249 240 263 308 333 339 349 70 63 265 184 231 314 347 188 192 191 190 171 169 168 166 179 190 194 147 147 162 167 179 195 197 189 181 168 282 259 265 316 311 248 247 257 213 167 150 159 246 177 110 95 83 88 101 321 353 349 312 13 141 248 261 251 131 87 128 209 359 15 32 38 46 51 48 50 50 50 51 50 55 63
305 303 295 285 279 267 254 252 267 283 310 333 339 34 83 121 223 222 235 323 15 245 278 192 187 164 160 167 172 174 183 191 172 158 161 163 176 198 214 215 171 141 187 222 223 328 318 291 281 262 258 191 146 146 174 232 123 122 129 121 131 136 103 242 276 15 228 259 275 277 107 123 182 164 347 22 57 51 55 59 55 57 56 54 54 52 55 57
305 301 294 288 279 268 260 260 266 279 312 331 357 94 113 201 235 232 221 289 288 281 308 196 178 154 159 176 176 162 173 209 185 157 152 160 172 195 227 235 189 133 136 192 191 171 202 296 280 199 227 234 153 156 162 154 139 165 160 130 145 155 137 191 208 158 219 267 294 290 152 164 160 169 263 51 70 59 59 58 57 62 61 62 59 50 48 44
307 304 299 292 280 266 256 253 253 261 303 327 72 97 200 214 237 231 217 278 273 272 281 211 182 169 171 187 187 170 168 206 195 162 157 169 176 188 197 218 207 158 125 163 218 185 167 237 252 221 196 166 163 176 141 112 115 226 144 108 151 181 146 153 171 162 177 215 323 299 130 204 137 140 196 97 69 60 61 57 58 63 62 64 60 53 50 43
314 312 305 285 274 260 236 233 224 215 240 46 104 187 228 221 244 241 250 293 310 307 310 243 178 173 184 190 201 196 186 195 179 158 170 172 174 192 192 210 204 175 151 165 213 194 149 244 271 252 182 173 169 174 144 134 165 226 113 141 202 170 136 136 198 135 108 139 279 243 116 60 80 106 59 57 63 64 65 63 67 69 66 65 60 56 56 51
319 317 302 273 264 241 204 195 180 178 187 103 152 222 248 259 253 253 286 328 311 296 315 16 164 162 176 184 203 202 191 197 178 162 172 172 180 201 197 214 207 183 175 171 208 216 158 258 289 245 210 226 181 157 151 152 145 119 162 198 172 94 101 110 148 18 64 184 266 274 142 166 148 163 344 40 65 73 72 75 77 72 70 70 64 63 63 59
317 311 289 265 240 203 186 168 160 159 134 122 209 257 269 255 259 287 315 336 315 294 7 43 134 108 128 165 226 206 178 179 195 176 162 177 215 235 192 220 220 199 184 165 184 255 149 255 288 265 216 219 158 130 149 305 82 128 172 185 110 115 163 65 143 144 124 190 256 22 98 162 163 213 324 55 84 91 86 85 81 72 71 71 66 65 64 64
309 303 294 244 175 170 164 153 149 140 93 174 225 259 260 270 281 291 293 298 300 297 55 43 282 26 77 136 266 231 178 176 190 173 146 169 194 348 321 298 242 224 194 165 171 214 132 132 279 294 273 167 111 98 175 260 328 73 131 75 91 141 163 182 170 156 159 194 207 89 44 303 227 225 156 110 108 104 97 88 81 76 70 62 61 65 58 56
279 278 304 152 150 152 148 144 139 97 134 189 225 244 288 295 284 281 276 258 253 246 121 175 288 28 23 50 336 300 179 170 178 164 121 116 109 80 337 351 314 271 203 164 169 177 132 139 223 299 332 99 124 202 185 191 193 137 144 163 192 157 148 178 180 145 145 164 177 144 150 264 255 231 135 124 111 106 102 94 90 87 79 60 55 64 58 51
237 286 301 158 150 145 141 136 125 150 177 239 244 252 290 296 286 288 282 247 209 212 165 171 168 46 29 360 348 336 38 118 139 117 79 61 91 107 325 335 318 319 58 133 132 125 154 158 188 277 342 97 228 218 179 198 181 156 170 185 187 184 152 151 238 284 114 141 169 152 163 257 267 174 131 119 109 109 107 105 102 91 81 67 56 61 60 54
221 256 181 152 150 144 135 111 163 171 216 252 242 270 289 288 284 284 282 268 134 305 143 123 84 40 39 26 355 342 27 74 64 64 73 56 68 80 300 319 16 25 72 107 131 171 141 121 157 238 251 217 214 72 62 47 123 106 107 192 176 162 134 142 205 255 84 116 133 108 121 248 253 153 123 105 102 104 105 107 106 90 78 72 64 60 55 52
219 242 128 154 159 149 112 64 206 235 261 264 274 281 282 280 282 283 291 328 25 25 29 35 50 49 31 24 6 359 21 77 80 87 117 82 49 9 316 348 77 58 58 67 307 276 98 105 150 247 291 297 289 62 52 42 54 66 29 5 40 175 157 149 176 189 138 149 132 87 89 245 204 151 122 109 103 96 90 96 103 97 84 75 67 61 55 49
271 315 83 171 184 176 103 147 196 242 251 276 287 272 269 268 261 263 284 331 351 44 68 29 37 50 25 37 47 27 26 65 92 94 110 99 41 334 339 28 78 67 55 125 214 236 71 115 117 104 326 329 324 358 30 31 44 55 338 329 336 39 99 126 144 86 107 175 141 120 162 237 171 138 114 108 101 91 80 78 88 92 89 79 69 63 60 53
293 287 15 199 201 195 133 165 157 190 248 282 286 263 260 259 242 232 231 351 357 46 107 55 43 80 51 45 58 41 32 52 89 69 69 74 57 331 351 20 58 75 73 89 129 125 99 95 110 128 171 207 210 201 224 355 18 29 349 345 352 17 52 116 141 80 102 203 72 111 165 179 139 125 108 105 101 93 84 78 76 77 79 76 69 66 61 56
8 177 308 168 183 180 238 248 154 219 250 265 273 257 239 235 247 198 71 31 12 23 50 35 42 51 40 46 66 53 40 48 58 56 57 61 71 351 358 17 43 45 30 31 34 75 92 52 62 115 142 171 166 167 186 146 81 46 355 5 2 356 27 92 106 99 150 134 54 95 161 142 136 131 113 102 95 88 82 79 79 76 72 65 61 64 61 55
359 110 145 143 157 189 241 276 244 216 232 240 265 267 253 252 323 7 22 35 20 8 13 32 40 35 22 57 86 66 49 49 48 62 67 44 57 355 357 27 37 12 7 19 10 49 94 34 10 66 87 111 126 120 111 102 92 86 50 26 11 3 33 69 89 124 138 113 72 206 151 130 134 127 112 106 98 86 72 68 76 76 70 66 61 61 60 54
227 276 213 187 206 190 207 248 236 229 249 256 264 285 311 6 26 352 344 4 10 31 50 17 5 15 21 84 119 102 64 50 30 46 79 32 17 357 352 9 19 7 19 25 357 61 106 43 347 61 78 83 108 116 103 95 86 68 58 43 22 29 48 62 58 41 110 126 153 157 128 110 111 101 90 87 89 85 72 63 69 70 65 67 66 61 56 47
202 261 276 275 265 195 208 255 240 233 244 234 245 284 317 35 11 318 58 39 359 13 75 59 349 17 38 57 106 101 71 100 64 13 106 53 29 41 19 355 345 1 39 43 2 63 102 64 318 72 79 60 60 101 103 98 93 65 44 31 30 50 60 60 44 33 58 103 130 127 108 88 82 83 75 68 75 81 73 57 53 58 57 58 62 60 53 41
165 300 313 352 325 277 246 289 258 250 261 222 232 276 252 77 356 327 70 92 66 338 45 96 51 47 54 56 72 70 59 134 128 104 110 92 46 61 106 237 295 356 34 47 4 17 77 157 231 74 74 29 9 56 90 96 95 78 46 21 18 39 53 48 38 38 54 80 104 109 106 94 80 80 75 68 69 73 68 55 47 45 44 50 58 57 52 42
265 289 320 34 321 310 66 291 41 51 326 235 207 263 13 58 291 31 34 58 101 48 14 128 104 65 57 54 58 59 55 101 106 113 129 125 148 183 157 169 157 91 40 49 35 21 71 142 192 71 85 9 351 55 95 97 88 71 44 19 5 15 55 53 28 21 103 127 122 111 113 119 111 98 80 66 65 69 66 55 48 42 39 47 53 53 51 40
302 305 311 148 290 315 323 295 31 92 277 235 193 238 34 341 309 86 58 6 42 44 37 127 111 79 63 55 43 19 202 120 111 136 146 134 85 78 142 164 138 127 118 83 60 57 102 121 124 93 102 133 181 230 317 69 80 53 16 358 339 347 75 69 35 21 66 131 133 128 130 124 114 104 87 73 67 68 66 53 46 45 45 49 48 48 47 36